Location: Unspecified
(0.0000°N, 0.0000°E)
Time: 00:56:15
(UTC+00:00)

QIANFAN-31 - Pass Details

Date: 15 March 2026
Orbit: 1037 x 1049 km, 89.0° (Epoch: 14 April)

Event Time Altitude Azimuth Distance (km) Brightness Sun altitude
Rises 04:26:27 0° 19° (NNE) 3,779 ? -25.6°
Reaches altitude 10° 04:29:10 10° 27° (NNE) 2,830 ? -24.9°
Maximum altitude 04:35:05 38° 93° (E) 1,535 ? -23.5°
Drops below altitude 10° 04:41:00 10° 159° (SSE) 2,846 ? -22.0°
Sets 04:43:44 0° 167° (SSE) 3,803 ? -21.3°
